{"data":{"norad_id":52702,"epoch":"2026-09-20T05:01:21.809280Z","epoch_age_seconds":91573,"freshness":"FRESH","line1":"1 52702U 22053AY  26263.20928020  .00001639  00000+0  59634-4 0  9999","line2":"2 52702  53.1600 349.0921 0001106  89.2514 270.8615 15.34392217240549","mean_motion":15.34392217,"eccentricity":0.0001106,"inclination_deg":53.16,"raan_deg":349.0921,"arg_perigee_deg":89.2514,"mean_anomaly_deg":270.8615,"bstar":5.9634e-5,"rev_number":24054,"period_min":93.848234111579,"perigee_km":461.96977353202,"apogee_km":463.48297251014,"semimajor_km":6840.8633730211,"source":"CELESTRAK","updated_at":"2026-09-20T09:00:40.108812Z"}}